Location: Joplin
(37.0842°N, 94.5131°W)
Time: 04:45:58
(UTC-05:00)

STARLINK-3051 - Pass Details

Date: 29 September 2021
Orbit: 357 x 362 km, 70.0° (Epoch: 18 October)

Event Time Altitude Azimuth Distance (km) Brightness Sun altitude
Rises 06:32:10 0° 169° (S) 2,168 6.8 -8.8°
Reaches altitude 10° 06:34:37 10° 147° (SSE) 1,330 6.0 -8.3°
Maximum altitude 06:36:31 16° 106° (ESE) 1,035 6.3 -7.9°
Drops below altitude 10° 06:38:27 10° 64° (ENE) 1,340 6.9 -7.5°
Sets 06:40:55 0° 42° (NE) 2,192 7.4 -7.0°
